Location: Stigler
(35.2540°N, 95.1230°W)
Time: 05:50:47
(UTC-05:00)

Daily predictions for brighter satellites

Satellite Brightness Start Highest point End
(mag) Time Altitude Azimuth Time Altitude Azimuth Time Altitude Azimuth
Cosmos 1553 Rocket 4.4 00:00:34 10° N 00:05:58 53° NE 00:05:58 53° NE
Terra 3.9 00:24:15 20° WNW 00:24:15 20° WNW 00:26:44 10° NW
CZ-2C R/B 4.2 00:25:43 37° NNE 00:25:43 37° NNE 00:28:53 10° N
Mayak 1.7 00:26:42 10° NE 00:26:48 11° NE 00:26:48 11° NE
Cosmos 2227 Rocket 3.3 00:32:00 10° N 00:36:06 37° NNE 00:36:06 37° NNE
Cosmos 2219 4.2 00:34:50 10° NNW 00:38:45 41° NW 00:38:45 41° NW
CZ-2C R/B 3.8 00:38:52 10° N 00:42:03 39° N 00:42:03 39° N
Cosmos 1980 Rocket 4.2 01:03:42 18° ENE 01:03:42 18° ENE 01:05:32 10° NE
Cosmos 1697 Rocket 3.9 01:30:57 39° NNE 01:30:57 39° NNE 01:34:22 10° NNE
Cosmos 2297 Rocket 3.4 01:26:42 10° NNW 01:30:03 37° NNW 01:30:03 37° NNW
SL-16 R/B 4.3 01:44:16 17° ENE 01:44:16 17° ENE 01:46:18 10° NE
Cosmos 2322 Rocket 4.1 01:53:12 21° ENE 01:53:12 21° ENE 01:55:50 10° NE
Mayak 1.6 02:02:38 10° NNW 02:03:28 14° NNW 02:03:28 14° NNW
Cosmos 839 Rocket 4.4 02:08:23 60° NNE 02:08:23 60° NNE 02:13:18 10° NNE
USA 234 3.5 02:03:03 10° NE 02:08:23 60° ENE 02:08:23 60° ENE
Cosmos 1745 Rocket 4.4 02:17:35 59° N 02:17:35 59° N 02:22:30 10° N
Resurs 1-4 Rocket 4.5 02:18:19 10° ENE 02:20:23 13° E 02:20:23 13° E
Cosmos 2227 Rocket 4.5 02:16:52 10° NW 02:17:54 14° WNW 02:17:54 14° WNW
ADEOS Rocket 3.9 02:26:24 10° NNE 02:31:34 37° E 02:31:34 37° E
NOSS 3-1 (A) 3.7 02:33:28 60° NNE 02:33:28 60° NNE 02:38:37 10° NNE
Cosmos 2263 Rocket 3.9 02:35:23 10° N 02:40:14 28° ENE 02:42:29 22° E
CZ-2D R/B 4.0 02:36:38 10° NE 02:40:45 21° E 02:40:47 21° E
Cosmos 2360 Rocket 3.7 02:44:09 27° E 02:44:09 27° E 02:48:18 10° NE
Cosmos 1980 Rocket 3.4 02:45:28 33° NW 02:45:28 33° NW 02:49:44 10° N
CZ-4C R/B 2.8 02:43:55 10° NNW 02:51:20 86° WSW 02:51:52 79° S
Centaur D AC-29 4.0 03:03:54 12° ESE 03:03:54 12° ESE 03:04:40 10° ESE
Meteor 1-21 4.4 03:13:12 10° NNW 03:17:56 61° NW 03:17:56 61° NW
SL-16 R/B 2.8 03:26:08 46° WNW 03:26:08 46° WNW 03:31:21 10° N
ISS -0.3 03:25:07 10° N 03:26:25 12° NNE 03:27:43 10° NE
Cosmos 1709 Rocket 4.4 03:27:28 46° WNW 03:27:28 46° WNW 03:33:00 10° N
ADEOS 4.1 03:24:45 10° NNE 03:29:48 47° E 03:30:19 46° ESE
Cosmos 1302 Rocket 4.2 03:30:39 65° ESE 03:30:40 65° ESE 03:35:55 10° NNE
Meteor 2-9 Rocket 4.4 03:30:58 61° WNW 03:30:58 61° WNW 03:36:37 10° N
Cosmos 1110 Rocket 4.4 03:35:10 52° NW 03:35:10 52° NW 03:39:47 10° N
Cosmos 1606 Rocket 4.0 03:35:27 60° NE 03:35:27 60° NE 03:39:13 10° NNE
Cosmos 2322 Rocket 3.0 03:35:01 38° WNW 03:35:02 38° WNW 03:40:21 10° N
H-2A R/B 3.9 02:46:16 10° W 03:35:06 74° SSW 03:41:19 10° ESE
IRS-1D 3.4 03:33:03 10° NNE 03:38:01 74° ESE 03:38:05 74° ESE
Spot 4 Rocket 3.9 03:33:57 10° NNE 03:39:08 80° ESE 03:39:19 79° SE
SL-16 R/B 2.5 03:40:35 47° SSE 03:42:36 84° ENE 03:48:53 10° NNW
NOSS 2-3 (D) 3.6 03:51:31 84° W 03:51:36 85° WNW 03:56:49 10° NNE
Cosmos 2327 Rocket 4.5 03:55:32 54° SSW 03:57:03 75° W 04:03:29 10° N
ADEOS II 4.3 03:56:33 10° NE 04:00:14 19° E 04:03:53 10° SE
Resurs 1-4 Rocket 2.1 03:55:38 10° N 04:00:51 64° WNW 04:01:28 59° WSW
Cosmos 1825 Rocket 3.9 03:56:57 10° NNW 04:00:35 52° NW 04:00:35 52° NW
Cosmos 2184 Rocket 4.0 04:00:07 52° SW 04:01:21 63° W 04:07:29 10° N
Cosmos 1758 Rocket 3.4 03:58:12 10° N 04:02:25 81° NW 04:02:25 81° NW
BREEZE-M DEB (TANK) 2.6 04:05:00 53° NE 04:05:00 53° NE 04:07:59 10° ENE
ARIANE 5 R/B 2.5 04:01:07 10° N 04:06:12 66° WNW 04:06:58 57° WSW
Cosmos 2237 4.1 04:05:01 54° SSW 04:06:23 90° WSW 04:12:07 10° NNE
Cosmos 1271 Rocket 3.0 04:11:22 57° SE 04:11:53 64° E 04:15:51 10° NNE
Cosmos 2228 2.8 04:13:49 74° SW 04:14:03 77° W 04:18:21 10° N
Cosmos 1184 Rocket 3.6 04:14:01 10° N 04:17:14 48° E 04:17:41 44° ESE
UNKNOWN OBJECT B 2.6 04:13:25 10° NNE 04:17:16 90° ENE 04:17:31 78° S
ADEOS Rocket 4.1 04:12:16 10° N 04:17:18 27° WNW 04:18:31 25° W
ATLAS 2AS CENTAUR R/B 3.0 04:14:19 38° SW 04:17:43 80° WNW 04:25:53 10° NNE
Intercosmos 24 4.4 04:18:32 38° SSE 04:19:39 55° E 04:24:03 10° NNE
CZ-2D R/B 2.7 04:15:47 10° N 04:20:56 42° WNW 04:22:06 37° WSW
Cosmos 389 Rocket 3.3 04:21:17 38° SE 04:22:04 46° E 04:25:30 10° NNE
Cosmos 2263 Rocket 2.8 04:19:02 10° NW 04:24:05 36° WSW 04:24:05 36° WSW
Cosmos 2360 Rocket 3.0 04:25:56 31° W 04:27:24 35° WNW 04:32:35 10° N
Lacrosse 5 4.4 04:26:08 10° SE 04:27:31 11° ESE 04:28:55 10° E
COSMOS 2428 2.7 04:27:38 38° SSW 04:29:57 80° WNW 04:35:44 10° NNE
Cosmos 44 3.0 04:25:49 10° NW 04:30:10 63° WSW 04:32:22 29° S
Cosmos 2219 Rocket 2.6 04:28:26 26° S 04:31:38 61° ESE 04:37:14 10° NNE
DELTA 2 R/B (1) 3.8 04:30:01 28° W 04:32:58 68° NNW 04:38:31 10° ENE
Cosmos 2058 Rocket 3.7 04:33:27 38° W 04:33:59 39° W 04:38:13 10° N
OAO 3 Rocket 3.1 04:32:30 37° W 04:34:25 87° S 04:39:20 10° E
Cosmos 2237 Rocket 3.6 04:30:03 11° SSE 04:34:44 33° ESE 04:39:42 10° NE
Aureole 2 Rocket 3.2 04:33:21 34° S 04:34:58 63° ESE 04:39:02 10° NNE
Nadezhda 3 Rocket 3.9 04:28:57 10° N 04:35:12 82° W 04:40:38 15° S
SEDSat Delta rocket 3.5 04:36:49 34° S 04:37:06 35° SSE 04:40:58 10° E
Cosmos 962 Rocket 4.4 04:34:02 25° S 04:37:51 85° W 04:44:00 10° N
Cosmos 1953 Rocket 4.4 04:34:54 10° NNW 04:38:50 31° W 04:38:52 31° W
Cosmos 1486 Rocket 4.2 04:34:15 10° NNW 04:39:21 49° WSW 04:41:43 29° SSW
Chunghua 1 4.3 04:39:41 52° WSW 04:40:30 85° S 04:44:13 10° E
Cosmos 972 Rocket 4.0 04:39:29 36° SW 04:41:11 55° WNW 04:46:02 10° N
MOZ.5/SAFIR/RUBIN 5/SL-8 3.8 04:39:51 33° SSW 04:41:42 55° W 04:46:15 10° NNW
Cosmos 1844 Rocket 3.1 04:39:21 10° NNW 04:45:00 66° ENE 04:50:37 10° SSE
MOS 1 Rocket 4.1 04:42:27 10° N 04:46:21 30° WNW 04:47:18 27° W
Cosmos 1812 Rocket 3.6 04:43:40 23° S 04:46:23 76° E 04:50:44 10° N
Cosmos 2333 Rocket 2.4 04:45:01 20° S 04:49:01 69° ESE 04:54:42 10° NNE
Cosmos 1544 3.2 04:47:18 27° S 04:49:11 77° E 04:52:54 10° N
Atlas Centaur 2 3.8 04:48:39 10° SSE 04:50:02 11° SSE 04:51:30 10° SE
Cosmos 1354 Rocket 3.9 04:46:35 10° NNW 04:51:54 78° WSW 04:57:11 10° S
SeaSat 1 3.8 04:47:23 10° SE 04:51:59 41° ENE 04:56:36 10° N
Okean O Rocket 2.8 04:48:41 10° NNE 04:52:54 40° E 04:57:05 10° S
Meteor 2-5 Rocket 3.9 04:47:38 10° NNW 04:53:06 50° W 04:57:13 18° SSW
ATLAS 3B R/B 3.2 04:47:51 10° NNW 04:54:27 60° ENE 05:00:49 10° SE
BREEZE-M DEB (TANK) 4.1 04:41:01 10° NW 04:54:46 68° SW 04:58:40 10° SE
Cosmos 2154 Rocket 4.5 04:52:20 25° SW 04:55:35 43° W 05:01:32 10° N
Cosmos 1766 3.5 04:58:09 30° SW 04:59:43 50° W 05:03:33 10° N
DELTA 2 R/B(2) 3.6 05:00:13 49° ENE 05:00:13 49° ENE 05:01:45 10° ENE
Cosmos 1707 4.0 04:57:03 10° NW 05:00:08 23° W 05:00:12 23° W
Meteor 1-24 Rocket 3.6 04:56:01 10° NNW 05:01:25 72° W 05:06:59 10° S
ISS -3.8 05:00:04 10° NW 05:03:19 82° NE 05:06:36 10° SE
USA 161 1.5 05:02:49 22° S 05:04:34 65° W 05:07:32 10° NNW
ATLAS 2A CENTAUR R/B 2.9 05:05:14 20° S 05:05:14 20° S 05:06:57 10° SE
NOSS 0 Rocket 4.0 05:01:21 15° SSW 05:06:36 81° ESE 05:12:49 10° NNE
OPS 6432 4.5 05:05:37 26° SW 05:07:30 66° WNW 05:10:40 10° NNE
Cosmos 2278 Rocket 3.7 05:03:52 10° N 05:09:10 39° ENE 05:14:27 10° SE
Cosmos 1378 4.5 05:07:05 10° NW 05:09:56 21° W 05:10:20 21° W
Cosmos 44 Rocket 4.4 05:08:11 10° WNW 05:11:43 21° WSW 05:12:31 20° WSW
KM-V1 4.4 05:10:45 19° WSW 05:13:27 43° S 05:16:04 10° ESE
GENESIS II 4.4 05:09:51 10° NNW 05:13:46 74° ENE 05:17:38 10° SE
USA 238 DEB 4.2 05:08:49 10° NNW 05:15:55 70° ENE 05:23:02 10° SE
USA 238 4.2 05:08:56 10° NNW 05:16:01 69° ENE 05:23:09 10° SE
Cosmos 2366 rocket 4.0 05:11:57 10° S 05:18:05 90° SE 05:24:19 10° N
Cosmos 1607 4.1 05:12:08 10° NW 05:18:25 55° WSW 05:24:39 10° S
Cosmos 968 Rocket 4.1 05:13:47 10° N 05:18:55 60° ENE 05:23:57 10° SSE
Cosmos 1733 4.2 05:16:29 10° SSE 05:20:11 47° E 05:23:56 10° NNE
SL-16 R/B 3.8 05:16:01 10° SSE 05:21:02 33° ESE 05:26:04 10° NE
BREEZE-M DEB (TANK) 4.1 05:10:43 10° NW 05:25:14 47° WSW 05:29:20 10° SSE
Tiangong 1 2.9 05:24:55 11° S 05:26:44 18° SE 05:28:43 10° E
SL-16 R/B 4.2 05:25:41 11° WSW 05:26:49 12° W 05:29:05 10° WNW
Cosmos 1844 3.7 05:27:22 10° NNW 05:32:55 63° WSW 05:38:29 10° S
Cosmos 1674 2.9 05:29:12 10° N 05:33:02 74° E 05:36:53 10° SSE
ERBS 2.3 05:30:54 14° SW 05:33:47 85° NW 05:37:14 10° NE
Meteor 2-16 Rocket 4.5 05:27:51 10° S 05:34:00 85° W 05:40:12 10° N
Cosmos 1340 Rocket 4.2 05:31:12 10° NW 05:34:10 20° W 05:36:43 12° SW
Cosmos 1805 4.1 05:32:15 13° SW 05:35:20 33° W 05:38:54 10° NNW
Landsat 4 3.6 05:32:14 10° SSE 05:35:58 83° WSW 05:39:42 10° NNW
Cosmos 1356 Rocket 3.4 05:32:31 10° NNW 05:36:27 53° W 05:40:19 10° S
Cosmos 2218 Rocket 4.2 05:31:05 10° SSW 05:37:11 55° W 05:43:24 10° N
ADEOS II 2.5 05:35:07 10° N 05:40:06 44° WNW 05:45:03 10° SW
CZ-2C R/B 4.4 05:36:43 10° SSE 05:41:11 60° ENE 05:45:36 10° N
Meteor 2-15 Rocket 4.4 05:36:27 10° N 05:42:37 78° W 05:48:43 10° S
Meteor PRIRODA 3.8 05:40:02 10° NNE 05:43:47 76° ESE 05:47:30 10° S
PSLV R/B 4.0 05:41:00 10° N 05:45:12 46° WNW 05:49:23 10° SSW
KORONAS-FOTON 4.1 05:43:36 10° N 05:47:32 75° E 05:51:27 10° S
Meteor 1-21 Rocket 4.3 05:46:08 10° NNW 05:51:53 75° W 05:57:44 10° S
Lacrosse 5 rocket 2.5 05:49:29 10° NNW 05:53:28 50° NE 05:57:42 10° ESE
Cosmos 1758 4.4 05:51:30 10° SW 05:54:56 27° WNW 05:58:24 10° NNW
Geosat 4.2 05:50:10 10° NNE 05:55:07 60° WNW 06:00:03 10° SW
Intelsat 5-1 Rocket 4.4 05:55:51 10° WSW 06:01:08 35° S 06:14:36 10° ESE
CZ-3A R/B 3.2 05:58:27 10° NW 06:05:08 86° SW 06:10:54 10° SE
